{"data":{"norad_id":62051,"epoch":"2026-05-25T03:38:54.422592Z","epoch_age_seconds":58531,"freshness":"FRESH","line1":"1 62051U 24216V   26145.15201878  .00010754  00000+0  39965-3 0  9990","line2":"2 62051  42.9987 191.9316 0001057 277.7207  82.3524 15.27588490 85488","mean_motion":15.2758849,"eccentricity":0.0001057,"inclination_deg":42.9987,"raan_deg":191.9316,"arg_perigee_deg":277.7207,"mean_anomaly_deg":82.3524,"bstar":0.00039965,"rev_number":8548,"period_min":94.266224799848,"perigee_km":482.29844935989,"apogee_km":483.74889872638,"semimajor_km":6861.1606740431,"source":"CELESTRAK","updated_at":"2026-05-25T13:38:19.527988Z"}}